カタログに戻る

COSMOS 794

運用中軍事LEO
NORAD 8610·PAYLOAD·🇷🇺 Russia

打ち上げ Jan 28, 1976 から Plesetsk Cosmodrome

Loading…

次のパス (今後24時間)

TLE

最新Source: Space-Track

元期: Sep 14, 2026, 15:44 UTC

1 08610U 76008D   26257.65607119  .00000002  00000-0  11972-3 0  9998
2 08610  74.0579 329.1154 0026070 123.9415  30.1484 12.48158399306856

AllMySatでCOSMOS 794をリアルタイム追跡

Download on the App Store